Location: Dappach
(48.9767°N, 9.6998°E)
Time: 07:31:44
(UTC+00:00)

SL-16 Debris - Visible Passes

Search period start: 07 October 2024 00:00
Search period end: 17 October 2024 00:00
Orbit: 843 x 1157 km, 71.0° (Epoch: 06 October)

Date Brightness Start Highest point End Pass type
(mag) Time Alt. Az. Time Alt. Az. Time Alt. Az.
07 Oct ? 00:34:31 16° NE 00:34:31 16° NE 00:35:48 10° NE visible
07 Oct ? 02:19:41 38° N 02:19:41 38° N 02:23:41 10° NNE visible
07 Oct ? 04:04:52 11° NW 04:07:15 14° NNW 04:10:09 10° N visible
08 Oct ? 01:07:00 24° NE 01:07:00 24° NE 01:09:15 10° NNE visible
08 Oct ? 02:52:11 26° NNW 02:52:11 26° NNW 02:56:28 10° NNE visible
09 Oct ? 01:39:30 29° NNE 01:39:30 29° NNE 01:42:20 10° NNE visible
09 Oct ? 03:24:40 16° NW 03:25:26 16° NNW 03:29:02 10° N visible
10 Oct ? 00:26:47 15° NE 00:26:47 15° NE 00:27:44 10° NE visible
10 Oct ? 02:11:57 26° N 02:11:57 26° N 02:15:11 10° NNE visible
10 Oct ? 03:57:57 10° NW 03:59:33 11° NNW 04:01:10 10° N visible
11 Oct ? 00:59:13 20° NNE 00:59:13 20° NNE 01:00:56 10° NNE visible
11 Oct ? 02:44:24 19° NNW 02:44:24 19° NNW 02:47:52 10° N visible
12 Oct ? 01:31:39 22° N 01:31:39 22° N 01:33:52 10° NNE visible
12 Oct ? 03:16:49 13° NW 03:17:39 13° NNW 03:20:17 10° N visible
13 Oct ? 00:18:53 13° NNE 00:18:53 13° NNE 00:19:30 10° NNE visible
13 Oct ? 02:04:03 20° N 02:04:03 20° N 02:06:38 10° NNE visible
14 Oct ? 00:51:17 17° NNE 00:51:17 17° NNE 00:52:32 10° NNE visible
14 Oct ? 02:36:27 15° NNW 02:36:27 15° NNW 02:39:12 10° N visible
15 Oct ? 01:23:40 17° N 01:23:40 17° N 01:25:22 10° NNE visible
15 Oct ? 03:08:50 10° NNW 03:09:59 11° NNW 03:11:14 10° N visible
16 Oct ? 00:10:52 11° NNE 00:10:52 11° NNE 00:11:09 10° NNE visible
16 Oct ? 01:56:02 16° N 01:56:02 16° N 01:58:01 10° N visible
